Location: Quesnel
(52.9830°N, 122.4830°W)
Time: 00:47:33
(UTC-07:00)

ISS - All Passes

Search period start: 25 October 2014 00:00
Search period end: 03 November 2014 23:00
Orbit: 412 x 416 km, 51.6° (Epoch: 25 October)

Date Brightness Start Highest point End Pass type
(mag) Time Alt. Az. Time Alt. Az. Time Alt. Az.
25 Oct - 14:06:00 10° SW 14:08:59 31° SSE 14:11:59 10° E daylight
25 Oct - 15:42:05 10° WSW 15:45:24 67° S 15:48:44 10° E daylight
25 Oct - 17:18:41 10° W 17:21:59 57° SSW 17:25:16 10° ESE daylight
25 Oct - 18:55:39 10° W 18:58:16 21° SSW 19:00:52 10° SSE visible
26 Oct - 13:17:14 10° SSW 13:19:55 23° SSE 13:22:37 10° E daylight
26 Oct - 14:52:55 10° WSW 14:56:13 59° SSE 14:59:31 10° E daylight
26 Oct - 16:29:28 10° W 16:32:48 66° S 16:36:07 10° ESE daylight
26 Oct - 18:06:14 10° W 18:09:11 29° SSW 18:12:08 10° SE daylight
27 Oct - 12:28:41 10° S 12:30:51 16° SE 12:33:01 10° ESE daylight
27 Oct - 14:03:46 10° WSW 14:07:00 49° SSE 14:10:15 10° E daylight
27 Oct - 15:40:13 10° W 15:43:33 71° S 15:46:53 10° E daylight
27 Oct - 17:16:54 10° W 17:20:02 38° SSW 17:23:10 10° SE daylight
27 Oct - 18:54:55 10° WSW 18:56:03 11° SW 18:57:10 10° SSW visible
28 Oct - 11:40:46 10° SSE 11:41:48 11° SE 11:42:49 10° ESE daylight
28 Oct - 13:14:40 10° SW 13:17:47 38° SSE 13:20:55 10° E daylight
28 Oct - 14:50:56 10° W 14:54:16 71° S 14:57:36 10° E daylight
28 Oct - 16:27:34 10° W 16:30:49 49° SSW 16:34:03 10° ESE daylight
28 Oct - 18:04:46 10° WSW 18:06:58 17° SW 18:09:10 10° S daylight
29 Oct - 12:25:39 10° SSW 12:28:34 28° SSE 12:31:30 10° E daylight
29 Oct - 14:01:38 10° WSW 14:04:57 66° S 14:08:16 10° E daylight
29 Oct - 15:38:13 10° W 15:41:31 60° SSW 15:44:49 10° ESE daylight
29 Oct - 17:15:06 10° W 17:17:49 23° SSW 17:20:31 10° SSE daylight
30 Oct - 11:36:47 10° SSW 11:39:21 21° SSE 11:41:56 10° E daylight
30 Oct - 13:12:20 10° WSW 13:15:36 56° SSE 13:18:53 10° E daylight
30 Oct - 14:48:51 10° W 14:52:10 68° S 14:55:29 10° ESE daylight
30 Oct - 16:25:34 10° W 16:28:35 31° SSW 16:31:34 10° SE daylight
31 Oct - 10:48:12 10° S 10:50:08 15° SE 10:52:05 10° ESE daylight
31 Oct - 12:23:02 10° SW 12:26:15 46° SSE 12:29:28 10° E daylight
31 Oct - 13:59:26 10° W 14:02:46 71° S 14:06:05 10° E daylight
31 Oct - 15:36:05 10° W 15:39:15 41° SSW 15:42:25 10° SE daylight
31 Oct - 17:13:46 10° WSW 17:15:18 13° SW 17:16:50 10° SSW daylight
01 Nov - 11:33:49 10° SW 11:36:53 35° SSE 11:39:57 10° E daylight
01 Nov - 13:10:00 10° W 13:13:19 70° S 13:16:39 10° E daylight
01 Nov - 14:46:36 10° W 14:49:52 52° SSW 14:53:07 10° ESE daylight
01 Nov - 16:23:41 10° W 16:26:03 18° SW 16:28:25 10° S daylight
02 Nov - 09:44:41 10° SSW 09:47:30 26° SSE 09:50:21 10° E daylight
02 Nov - 11:20:33 10° WSW 11:23:51 63° S 11:27:09 10° E daylight
02 Nov - 12:57:06 10° W 13:00:24 62° S 13:03:42 10° ESE daylight
02 Nov - 14:33:55 10° W 14:36:44 25° SSW 14:39:32 10° SSE daylight
03 Nov - 08:55:44 10° SSW 08:58:09 19° SE 09:00:34 10° E daylight
03 Nov - 10:31:06 10° WSW 10:34:21 53° SSE 10:37:37 10° E daylight
03 Nov - 12:07:34 10° W 12:10:53 69° S 12:14:13 10° ESE daylight
03 Nov - 13:44:16 10° W 13:47:19 34° SSW 13:50:22 10° SE daylight
